Location: Muck Cross
(36.7179°N, 78.3678°W)
Time: 11:21:12
(UTC+00:00)

Vanguard 1 - All Passes

Search period start: 30 March 2023 00:00
Search period end: 09 April 2023 00:00
Orbit: 648 x 3832 km, 34.3° (Epoch: 30 March)

Date Brightness Start Highest point End Pass type
(mag) Time Alt. Az. Time Alt. Az. Time Alt. Az.
30 Mar - 01:46:12 10° W 02:00:43 31° SW 02:09:55 10° S visible
30 Mar - 14:13:54 10° SE 14:19:24 12° ESE 14:25:30 10° ESE daylight
30 Mar - 16:24:08 10° SSW 16:40:54 44° SE 17:01:55 10° ENE daylight
30 Mar - 18:44:44 10° WSW 19:06:23 74° SSE 19:28:15 10° E daylight
30 Mar - 21:10:03 10° W 21:34:05 83° S 21:51:50 10° E daylight
30 Mar - 23:38:04 10° WNW 23:59:36 61° SSW 00:12:38 10° SE visible
31 Mar - 02:08:35 10° W 02:20:33 23° SW 02:28:47 10° S visible
31 Mar - 14:29:11 10° SSE 14:39:14 19° SE 14:51:39 10° E daylight
31 Mar - 16:43:50 10° SW 17:01:21 52° SE 17:23:26 10° ENE daylight
31 Mar - 19:05:29 10° WSW 19:27:36 79° SSE 19:49:16 10° E daylight
31 Mar - 21:31:21 10° W 21:55:19 81° S 22:12:34 10° ESE daylight
31 Mar - 23:59:33 10° WNW 00:20:06 52° SW 00:32:40 10° SE visible
01 Apr - 02:32:01 10° W 02:40:16 16° WSW 02:46:39 10° SSW visible
01 Apr - 14:46:58 10° S 14:59:07 26° SE 15:15:07 10° E daylight
01 Apr - 17:03:50 10° SW 17:21:59 60° SSE 17:44:46 10° ENE daylight
01 Apr - 19:26:24 10° WSW 19:48:55 82° S 20:10:17 10° E daylight
01 Apr - 21:52:39 10° W 22:16:28 76° SSW 22:33:12 10° ESE daylight
02 Apr - 00:21:10 10° WNW 00:40:22 43° SW 00:52:28 10° SSE visible
02 Apr - 15:05:41 10° SSW 15:19:05 34° SE 15:37:35 10° E daylight
02 Apr - 17:24:06 10° SW 17:42:48 68° SSE 18:06:00 10° E daylight
02 Apr - 19:47:26 10° W 20:10:17 84° S 20:31:15 10° E daylight
02 Apr - 22:13:58 10° W 22:37:27 70° SSW 22:53:41 10° ESE daylight
03 Apr - 00:43:02 10° W 01:00:27 35° SW 01:11:55 10° SSE visible
03 Apr - 15:24:58 10° SSW 15:39:12 42° SE 15:59:31 10° ENE daylight
03 Apr - 17:44:35 10° WSW 18:03:48 74° SSE 18:27:12 10° E daylight
03 Apr - 20:08:32 10° W 20:31:40 83° S 20:52:11 10° E daylight
03 Apr - 22:35:19 10° WNW 22:58:15 63° SSW 23:14:00 10° SE daylight
04 Apr - 01:05:20 10° W 01:20:22 27° SW 01:30:52 10° S visible
04 Apr - 13:31:02 10° SSE 13:38:35 16° ESE 13:48:03 10° E daylight
04 Apr - 15:44:38 10° SSW 15:59:31 51° SE 16:21:08 10° ENE daylight
04 Apr - 18:05:15 10° WSW 18:24:58 79° SSE 18:48:22 10° E daylight
04 Apr - 20:29:41 10° W 20:52:59 81° S 21:13:02 10° ESE daylight
04 Apr - 22:56:43 10° WNW 23:18:52 55° SW 23:34:05 10° SE daylight
05 Apr - 01:28:27 10° W 01:40:10 19° SW 01:49:02 10° SSW visible
05 Apr - 13:48:33 10° S 13:58:20 23° SE 14:11:52 10° E daylight
05 Apr - 16:04:36 10° SW 16:20:00 59° SSE 16:42:35 10° ENE daylight
05 Apr - 18:26:02 10° WSW 18:46:15 82° S 19:09:32 10° E daylight
05 Apr - 20:50:50 10° W 21:14:13 77° SSW 21:33:46 10° ESE daylight
05 Apr - 23:18:15 10° WNW 23:39:16 46° SW 23:53:54 10° SSE daylight
06 Apr - 01:53:41 10° WSW 01:59:53 12° WSW 02:05:14 10° SW visible
06 Apr - 14:07:11 10° S 14:18:11 31° SE 14:34:30 10° E daylight
06 Apr - 16:24:49 10° SW 16:40:43 67° SSE 17:03:57 10° E daylight
06 Apr - 18:46:56 10° W 19:07:37 84° S 19:30:39 10° E daylight
06 Apr - 21:12:01 10° W 21:35:18 71° SSW 21:54:20 10° ESE daylight
06 Apr - 23:40:01 10° WNW 23:59:28 38° SW 00:13:23 10° SSE visible
07 Apr - 14:26:26 10° SSW 14:38:11 39° SE 14:56:31 10° ENE daylight
07 Apr - 16:45:13 10° WSW 17:01:37 74° SSE 17:25:17 10° E daylight
07 Apr - 19:07:53 10° W 19:29:00 83° S 19:51:43 10° E daylight
07 Apr - 21:33:14 10° WNW 21:56:13 64° SSW 22:14:43 10° SE daylight
08 Apr - 00:02:11 10° W 00:19:31 29° SW 00:32:23 10° S visible
08 Apr - 12:33:54 10° SE 12:38:32 13° ESE 12:44:01 10° E daylight
08 Apr - 14:46:04 10° SSW 14:58:21 48° SE 15:18:14 10° ENE daylight
08 Apr - 17:05:47 10° WSW 17:22:41 79° SSE 17:46:36 10° E daylight
08 Apr - 19:28:52 10° W 19:50:20 81° S 20:12:42 10° ESE daylight
08 Apr - 21:54:30 10° WNW 22:16:57 56° SSW 22:34:51 10° SE daylight
